VLG52WP LEBL-LEMH

Flight info

Callsign VLG52WP
Flight time 0h 35m
Altitude 19000
Route DUNES Q700 SARGO
Aircraft A320/M-SDE3FGHIRWY/LB1

Departure

Time 2026-05-07 19:26
Airport Josep Tarradellas Barcelona-El Prat Airport (LEBL)

Arrival

Time 2026-05-07 20:02
Airport Menorca Airport (LEMH)
Time Latitude Longitude Altitude Speed Heading
2026-05-07 18:57 41.29133 2.07895 19 ft 0 kts 155°
2026-05-07 19:15 41.29135 2.07893 19 ft 3 kts 155°
2026-05-07 19:15 41.29160 2.07879 20 ft 4 kts 155°
2026-05-07 19:15 41.29183 2.07861 21 ft 4 kts 136°
2026-05-07 19:15 41.29197 2.07834 20 ft 4 kts 91°
2026-05-07 19:16 41.29195 2.07816 19 ft 1 kts 65°
2026-05-07 19:16 41.29194 2.07814 19 ft 0 kts 65°
2026-05-07 19:18 41.29195 2.07817 19 ft 1 kts 65°
2026-05-07 19:18 41.29203 2.07840 20 ft 4 kts 65°
2026-05-07 19:19 41.29220 2.07887 19 ft 7 kts 65°
2026-05-07 19:19 41.29244 2.07959 19 ft 10 kts 66°
2026-05-07 19:19 41.29277 2.08055 19 ft 13 kts 66°
2026-05-07 19:19 41.29319 2.08176 19 ft 16 kts 64°
2026-05-07 19:20 41.29362 2.08305 19 ft 12 kts 66°
2026-05-07 19:20 41.29342 2.08392 19 ft 12 kts 148°
2026-05-07 19:20 41.29263 2.08440 21 ft 13 kts 156°
2026-05-07 19:20 41.29169 2.08497 19 ft 17 kts 155°
2026-05-07 19:21 41.29048 2.08571 18 ft 17 kts 155°
2026-05-07 19:21 41.28957 2.08624 18 ft 16 kts 155°
2026-05-07 19:21 41.28864 2.08668 17 ft 13 kts 183°
2026-05-07 19:21 41.28809 2.08574 18 ft 15 kts 246°
2026-05-07 19:22 41.28765 2.08444 17 ft 17 kts 245°
2026-05-07 19:22 41.28715 2.08300 16 ft 15 kts 245°
2026-05-07 19:22 41.28669 2.08168 17 ft 14 kts 245°
2026-05-07 19:22 41.28627 2.08042 19 ft 16 kts 245°
2026-05-07 19:23 41.28582 2.07910 16 ft 16 kts 245°
2026-05-07 19:23 41.28536 2.07777 16 ft 14 kts 245°
2026-05-07 19:23 41.28494 2.07655 18 ft 16 kts 245°
2026-05-07 19:23 41.28454 2.07537 19 ft 13 kts 245°
2026-05-07 19:24 41.28402 2.07461 17 ft 11 kts 203°
2026-05-07 19:24 41.28346 2.07432 17 ft 9 kts 201°
2026-05-07 19:24 41.28303 2.07411 16 ft 6 kts 200°
2026-05-07 19:24 41.28258 2.07405 17 ft 7 kts 161°
2026-05-07 19:25 41.28240 2.07457 18 ft 7 kts 81°
2026-05-07 19:25 41.28248 2.07485 19 ft 0 kts 67°
2026-05-07 19:25 41.28262 2.07527 20 ft 20 kts 66°
2026-05-07 19:26 41.28426 2.08005 19 ft 91 kts 65°
2026-05-07 19:26 41.28764 2.08995 20 ft 142 kts 65°
2026-05-07 19:26 41.29190 2.10267 492 ft 149 kts 68°
2026-05-07 19:26 41.29348 2.11629 1124 ft 151 kts 97°
2026-05-07 19:27 41.29202 2.13003 1798 ft 152 kts 97°
2026-05-07 19:27 41.29056 2.14425 2299 ft 160 kts 96°
2026-05-07 19:27 41.28909 2.15996 2622 ft 182 kts 97°
2026-05-07 19:27 41.28745 2.17767 2930 ft 204 kts 97°
2026-05-07 19:28 41.28569 2.19679 3591 ft 211 kts 97°
2026-05-07 19:28 41.28392 2.21620 4443 ft 212 kts 97°
2026-05-07 19:28 41.28213 2.23576 5255 ft 215 kts 97°
2026-05-07 19:28 41.28031 2.25568 6036 ft 218 kts 97°
2026-05-07 19:29 41.27849 2.27582 6838 ft 220 kts 96°
2026-05-07 19:29 41.27666 2.29616 7608 ft 223 kts 97°
2026-05-07 19:29 41.27274 2.31629 8296 ft 233 kts 112°
2026-05-07 19:29 41.26547 2.33676 8673 ft 257 kts 115°
2026-05-07 19:30 41.25731 2.35905 9119 ft 277 kts 116°
2026-05-07 19:30 41.24873 2.38243 9845 ft 285 kts 116°
2026-05-07 19:30 41.23984 2.40665 10334 ft 302 kts 116°
2026-05-07 19:30 41.23030 2.43273 10581 ft 325 kts 115°
2026-05-07 19:31 41.22025 2.46029 11106 ft 335 kts 115°
2026-05-07 19:31 41.21003 2.48838 11794 ft 341 kts 115°
2026-05-07 19:31 41.19979 2.51653 12488 ft 345 kts 115°
2026-05-07 19:31 41.18911 2.54579 13191 ft 350 kts 115°
2026-05-07 19:32 41.17839 2.57507 13858 ft 355 kts 115°
2026-05-07 19:32 41.16765 2.60429 14463 ft 359 kts 116°
2026-05-07 19:32 41.15664 2.63428 15079 ft 363 kts 116°
2026-05-07 19:32 41.14521 2.66479 15698 ft 366 kts 120°
2026-05-07 19:33 41.13086 2.69279 16318 ft 368 kts 128°
2026-05-07 19:33 41.11555 2.71960 16961 ft 370 kts 128°
2026-05-07 19:33 41.09993 2.74690 17605 ft 373 kts 129°
2026-05-07 19:33 41.08417 2.77441 18240 ft 376 kts 129°
2026-05-07 19:34 41.06829 2.80214 18754 ft 379 kts 129°
2026-05-07 19:34 41.05233 2.83001 18934 ft 380 kts 129°
2026-05-07 19:34 41.03609 2.85835 18983 ft 384 kts 129°
2026-05-07 19:34 41.02011 2.88623 18985 ft 385 kts 129°
2026-05-07 19:35 41.00369 2.91481 18985 ft 385 kts 129°
2026-05-07 19:35 40.98747 2.94301 18985 ft 385 kts 129°
2026-05-07 19:35 40.97128 2.97116 18984 ft 385 kts 129°
2026-05-07 19:35 40.95509 2.99932 18986 ft 384 kts 129°
2026-05-07 19:36 40.93892 3.02742 18988 ft 384 kts 129°
2026-05-07 19:36 40.92275 3.05547 18988 ft 383 kts 129°
2026-05-07 19:36 40.90660 3.08342 18989 ft 382 kts 129°
2026-05-07 19:36 40.89045 3.11134 18990 ft 382 kts 129°
2026-05-07 19:37 40.87453 3.13884 18994 ft 381 kts 129°
2026-05-07 19:37 40.85939 3.16757 19000 ft 382 kts 122°
2026-05-07 19:37 40.84633 3.19817 19004 ft 382 kts 121°
2026-05-07 19:37 40.83323 3.22871 19006 ft 381 kts 122°
2026-05-07 19:38 40.82014 3.25909 19013 ft 381 kts 122°
2026-05-07 19:38 40.80701 3.28940 19012 ft 380 kts 122°
2026-05-07 19:38 40.79392 3.31955 19018 ft 379 kts 122°
2026-05-07 19:38 40.78085 3.34968 19018 ft 377 kts 122°
2026-05-07 19:39 40.76786 3.37971 19017 ft 376 kts 122°
2026-05-07 19:39 40.75489 3.40965 19017 ft 375 kts 122°
2026-05-07 19:39 40.74195 3.43947 19014 ft 375 kts 122°
2026-05-07 19:39 40.72899 3.46926 19015 ft 374 kts 122°
2026-05-07 19:40 40.71605 3.49904 19013 ft 374 kts 122°
2026-05-07 19:40 40.70313 3.52875 19011 ft 373 kts 122°
2026-05-07 19:40 40.69022 3.55841 19009 ft 373 kts 122°
2026-05-07 19:40 40.67734 3.58802 19008 ft 373 kts 122°
2026-05-07 19:41 40.66442 3.61765 19007 ft 372 kts 122°
2026-05-07 19:41 40.65150 3.64722 19007 ft 372 kts 122°
2026-05-07 19:41 40.63858 3.67678 19007 ft 372 kts 122°
2026-05-07 19:41 40.62563 3.70629 19008 ft 372 kts 122°
2026-05-07 19:42 40.61268 3.73578 19003 ft 372 kts 122°
2026-05-07 19:42 40.59970 3.76532 19005 ft 372 kts 122°
2026-05-07 19:42 40.58675 3.79483 19002 ft 372 kts 122°
2026-05-07 19:42 40.57384 3.82429 18995 ft 370 kts 122°
2026-05-07 19:43 40.56107 3.85336 18726 ft 365 kts 122°
2026-05-07 19:43 40.54844 3.88198 17963 ft 359 kts 122°
2026-05-07 19:43 40.53605 3.91004 17278 ft 347 kts 121°
2026-05-07 19:43 40.52428 3.93676 16855 ft 330 kts 121°
2026-05-07 19:44 40.51232 3.96171 16434 ft 319 kts 129°
2026-05-07 19:44 40.49687 3.98247 16010 ft 317 kts 142°
2026-05-07 19:44 40.47821 3.99768 15706 ft 319 kts 155°
2026-05-07 19:44 40.45690 4.00721 15424 ft 327 kts 164°
2026-05-07 19:45 40.43482 4.01498 15129 ft 328 kts 164°
2026-05-07 19:45 40.41281 4.02278 14833 ft 327 kts 163°
2026-05-07 19:45 40.39082 4.03060 14535 ft 327 kts 163°
2026-05-07 19:45 40.36889 4.03842 14234 ft 326 kts 163°
2026-05-07 19:46 40.34702 4.04619 13940 ft 325 kts 163°
2026-05-07 19:46 40.32522 4.05394 13637 ft 324 kts 163°
2026-05-07 19:46 40.30346 4.06166 13341 ft 323 kts 163°
2026-05-07 19:46 40.28210 4.06922 13050 ft 322 kts 163°
2026-05-07 19:47 40.26055 4.07682 12757 ft 320 kts 163°
2026-05-07 19:47 40.23904 4.08441 12466 ft 319 kts 163°
2026-05-07 19:47 40.21765 4.09198 12179 ft 318 kts 163°
2026-05-07 19:47 40.19635 4.09949 11890 ft 316 kts 163°
2026-05-07 19:48 40.17517 4.10696 11608 ft 314 kts 163°
2026-05-07 19:48 40.15410 4.11440 11316 ft 313 kts 163°
2026-05-07 19:48 40.13314 4.12180 11035 ft 311 kts 163°
2026-05-07 19:48 40.11224 4.12878 10753 ft 310 kts 168°
2026-05-07 19:49 40.09075 4.12798 10428 ft 312 kts 193°
2026-05-07 19:49 40.07159 4.11524 10188 ft 310 kts 218°
2026-05-07 19:49 40.05839 4.09363 10062 ft 303 kts 239°
2026-05-07 19:49 40.04815 4.06986 9851 ft 297 kts 237°
2026-05-07 19:50 40.03677 4.04761 9577 ft 293 kts 231°
2026-05-07 19:50 40.02396 4.02708 9296 ft 291 kts 226°
2026-05-07 19:50 40.00983 4.00848 9008 ft 287 kts 220°
2026-05-07 19:50 39.99455 3.99192 8728 ft 285 kts 214°
2026-05-07 19:51 39.97830 3.97741 8454 ft 282 kts 209°
2026-05-07 19:51 39.96129 3.96496 8186 ft 279 kts 204°
2026-05-07 19:51 39.94363 3.95462 7936 ft 277 kts 199°
2026-05-07 19:51 39.92548 3.94649 7667 ft 275 kts 194°
2026-05-07 19:52 39.90704 3.94048 7398 ft 272 kts 189°
2026-05-07 19:52 39.88843 3.93650 7133 ft 270 kts 185°
2026-05-07 19:52 39.86976 3.93453 6873 ft 268 kts 180°
2026-05-07 19:52 39.85121 3.93475 6616 ft 265 kts 174°
2026-05-07 19:53 39.83290 3.93710 6353 ft 264 kts 170°
2026-05-07 19:53 39.81494 3.94143 6086 ft 262 kts 165°
2026-05-07 19:53 39.79741 3.94771 5830 ft 261 kts 160°
2026-05-07 19:53 39.78066 3.95572 5578 ft 259 kts 155°
2026-05-07 19:54 39.76437 3.96556 5329 ft 258 kts 151°
2026-05-07 19:54 39.74881 3.97711 5079 ft 256 kts 146°
2026-05-07 19:54 39.73412 3.99021 4830 ft 256 kts 142°
2026-05-07 19:54 39.72035 4.00473 4574 ft 254 kts 137°
2026-05-07 19:55 39.70763 4.02050 4330 ft 252 kts 132°
2026-05-07 19:55 39.69603 4.03745 4082 ft 250 kts 128°
2026-05-07 19:55 39.68560 4.05543 3841 ft 249 kts 123°
2026-05-07 19:55 39.67633 4.07429 3593 ft 247 kts 119°
2026-05-07 19:56 39.66828 4.09403 3354 ft 247 kts 115°
2026-05-07 19:56 39.66149 4.11442 3188 ft 242 kts 110°
2026-05-07 19:56 39.65611 4.13460 3087 ft 231 kts 105°
2026-05-07 19:56 39.65532 4.15474 2996 ft 221 kts 78°
2026-05-07 19:57 39.66225 4.17199 2886 ft 216 kts 49°
2026-05-07 19:57 39.67464 4.18232 2777 ft 213 kts 20°
2026-05-07 19:57 39.68913 4.18454 2661 ft 206 kts
2026-05-07 19:57 39.70295 4.18585 2570 ft 191 kts 14°
2026-05-07 19:58 39.71550 4.18846 2477 ft 176 kts 14°
2026-05-07 19:58 39.72724 4.19083 2338 ft 167 kts 14°
2026-05-07 19:58 39.73842 4.19313 2184 ft 159 kts 14°
2026-05-07 19:58 39.74907 4.19533 2089 ft 153 kts 14°
2026-05-07 19:59 39.75989 4.19757 2036 ft 157 kts 14°
2026-05-07 19:59 39.77057 4.19976 1886 ft 154 kts 15°
2026-05-07 19:59 39.78107 4.20191 1727 ft 148 kts 15°
2026-05-07 19:59 39.79089 4.20391 1525 ft 139 kts 15°
2026-05-07 20:00 39.79715 4.20520 1402 ft 137 kts 14°
2026-05-07 20:00 39.80964 4.20777 1151 ft 135 kts 12°
2026-05-07 20:00 39.81574 4.20902 1029 ft 134 kts 13°
2026-05-07 20:00 39.82489 4.21084 833 ft 133 kts 12°
2026-05-07 20:01 39.83397 4.21255 623 ft 131 kts 13°
2026-05-07 20:01 39.84308 4.21451 475 ft 134 kts 13°
2026-05-07 20:01 39.85219 4.21647 327 ft 133 kts 14°
2026-05-07 20:01 39.86277 4.21872 303 ft 73 kts
2026-05-07 20:02 39.86483 4.21913 303 ft 25 kts
2026-05-07 20:02 39.86571 4.21974 301 ft 10 kts 83°
2026-05-07 20:02 39.86561 4.22063 300 ft 11 kts 101°
2026-05-07 20:02 39.86549 4.22173 295 ft 9 kts 98°
2026-05-07 20:03 39.86537 4.22271 292 ft 8 kts 99°
2026-05-07 20:03 39.86539 4.22341 292 ft 9 kts 95°
2026-05-07 20:03 39.86532 4.22406 286 ft 7 kts 99°
2026-05-07 20:03 39.86530 4.22422 286 ft 1 kts 99°
2026-05-07 20:04 39.86530 4.22423 286 ft 0 kts 99°